Vertical_Velocity
-7 3 -5 -2 2 4 2 4 3 1 -3 -1 -1 -2 -2 -1 -1 -1 -0 -0 -1 -0 1 0 -0 -0 -0
10 4 7 3 15 1 3 -1 1 -2 -2 -1 -1 -1 -1 -0 0 -1 -1 -1 0 0 -1 2 -0 -3 -1
-1 -10 14 5 10 8 -6 -6 -4 -2 -2 -1 -2 -2 -2 -1 -0 -1 -1 -2 1 1 -1 -1 -2 -0 -1
20 -11 -4 -3 0 -3 6 2 -1 -1 -2 -4 -2 -3 -2 -0 -1 -2 -1 2 -1 -0 -2 -0 1 0 -1
3 -10 -1 -1 5 5 0 2 -2 -1 -2 -2 -4 -3 -0 -1 -0 -0 -1 -0 -0 -1 0 -0 -1 -1 -2
-1 -1 7 9 4 -2 -1 1 -2 0 -2 -2 -1 2 -1 -2 0 -2 0 -1 1 -3 -1 1 -1 -1 0
-2 -3 -3 1 4 1 -1 1 0 -3 -3 -1 0 0 -2 0 -1 -0 -0 1 -2 0 0 1 2 -2 -2
1 0 0 -1 -1 0 -0 -0 -1 0 -2 -2 1 -0 -1 -1 -1 -0 0 -1 2 0 0 -1 -1 -2 -1
2 0 1 -1 -0 -1 -0 0 -1 -2 -0 0 1 -1 -1 -2 -1 1 -0 1 0 -2 -2 -2 -1 0 3
3 -2 -2 -1 0 -0 -1 -2 -1 -2 0 -0 -0 -0 -0 0 -0 1 1 0 -1 -3 -1 -0 -3 -3 0
-1 -1 -0 -0 -2 -1 -0 -0 -1 1 -0 -1 -0 -0 1 -0 -3 -2 -1 -3 -1 -1 -0 -2 -2 -7 -2
0 -0 1 0 -1 -1 -1 -0 1 0 -1 -1 0 1 1 2 1 -1 1 -2 0 -0 1 -0 -6 -4 -6
-0 0 -1 -1 -0 0 -0 1 -1 -2 0 1 -1 -1 -1 -0 4 0 2 6 2 -2 -3 -4 -3 -2 3
-1 -1 -0 0 -1 0 1 -1 -1 0 -0 -0 -1 -1 -2 -1 1 2 -2 -5 -2 -6 -3 -1 -5 -7 -3
-1 -0 -1 -1 -0 -1 -2 -0 -0 0 1 -1 -0 -0 1 1 -1 -2 -3 -1 -3 -2 -0 -0 -5 -3 -3
0 -0 -1 -1 -1 -1 0 0 0 0 0 0 0 -1 -3 -7 -7 -3 -1 -4 2 -2 -3 -0 2 -3 -3
-1 -1 -1 0 0 0 0 -0 -0 -0 0 -1 -2 -2 -1 2 -1 -4 -1 -2 -1 -1 -2 -4 -2 -3 -3
Height
3053 3055 3058 3061 3062 3064 3066 3068 3067 3068 3068 3068 3067 3066 3064 3063 3060 3058 3055 3052 3049 3046 3042 3038 3035 3031 3028
3046 3049 3051 3054 3055 3058 3058 3059 3060 3061 3062 3061 3060 3058 3056 3055 3053 3050 3046 3043 3040 3037 3033 3030 3026 3023 3018
3039 3042 3043 3047 3048 3050 3051 3052 3053 3054 3054 3054 3052 3050 3049 3047 3045 3042 3038 3036 3033 3029 3025 3021 3017 3014 3010
3031 3034 3037 3039 3041 3042 3044 3045 3046 3046 3046 3046 3044 3043 3041 3039 3037 3034 3031 3028 3026 3022 3017 3013 3009 3004 3000
3024 3026 3029 3032 3034 3035 3036 3037 3037 3038 3038 3037 3036 3035 3033 3031 3029 3026 3024 3021 3018 3014 3008 3005 3000 2996 2991
3018 3020 3022 3025 3026 3028 3029 3031 3031 3031 3030 3029 3029 3027 3026 3024 3021 3019 3017 3014 3009 3006 3000 2996 2991 2987 2983
3011 3013 3016 3019 3020 3021 3022 3023 3024 3024 3023 3023 3021 3019 3020 3017 3015 3012 3009 3006 3002 2998 2992 2988 2983 2980 2976
3006 3008 3010 3012 3014 3015 3016 3016 3017 3017 3016 3015 3014 3014 3013 3011 3008 3005 3002 2999 2995 2989 2984 2979 2976 2973 2968
3000 3003 3005 3007 3008 3009 3010 3010 3010 3010 3010 3009 3009 3009 3007 3005 3002 2998 2995 2992 2987 2982 2977 2972 2967 2964 2961
2996 2998 3000 3001 3002 3003 3004 3004 3005 3005 3005 3005 3004 3003 3001 2998 2994 2992 2988 2984 2980 2975 2970 2964 2958 2954 2952
2992 2993 2995 2996 2997 2998 2999 2999 3000 3000 3001 3000 2999 2997 2994 2991 2988 2985 2982 2977 2973 2969 2964 2957 2952 2946 2939
2987 2989 2990 2991 2993 2994 2995 2996 2996 2997 2996 2995 2993 2991 2990 2988 2985 2982 2977 2971 2967 2964 2959 2952 2946 2941 2934
2983 2985 2987 2988 2990 2992 2992 2992 2993 2992 2991 2989 2988 2986 2985 2983 2981 2977 2975 2969 2962 2958 2953 2944 2938 2936 2933
2980 2982 2984 2986 2988 2988 2988 2989 2989 2987 2986 2985 2984 2982 2980 2978 2975 2972 2967 2963 2958 2952 2948 2940 2933 2927 2922
2978 2980 2983 2984 2985 2985 2985 2985 2984 2983 2983 2982 2980 2978 2975 2973 2969 2965 2961 2956 2950 2945 2942 2937 2928 2922 2917
2977 2979 2981 2981 2982 2982 2982 2981 2981 2980 2979 2977 2975 2972 2968 2963 2961 2959 2955 2952 2947 2940 2934 2930 2927 2920 2913
2976 2978 2979 2979 2980 2980 2979 2978 2977 2976 2975 2972 2970 2968 2965 2962 2955 2951 2952 2947 2943 2937 2931 2926 2919 2914 2909